Chamberlain, SD

10:44 AM CST on December 16, 2017 (GMT -0600)
Chamberlain

Weather History for K9V9 - December, 2012

Change the Weather History Date:

Saturday, December 29, 2012

  Actual Average Record
Temperature  
Mean Temperature 13 °F -  
Max Temperature 25 °F 29 °F 60 °F (1999)
Min Temperature 1 °F 10 °F -7 °F (2014)
Degree Days  
Heating Degree Days 52    
Moisture  
Dew Point 7 °F    
Average Humidity 77    
Maximum Humidity 84    
Minimum Humidity 69    
Precipitation  
Precipitation 0.00 in - - ()
Sea Level Pressure  
Sea Level Pressure 30.18 in    
Wind  
Wind Speed 7 mph (WSW)    
Max Wind Speed 14 mph    
Max Gust Speed -    
Averages and records for this station are not official NWS values.
T = Trace of Precipitation, MM = Missing Value Source: NWS Daily Summary

Daily Weather History Graph

Daily Weather History Graph

Search for Another Location

Airport or City:

Trip Planner

Search our weather history database for the weather conditions in past years. The results will help you decide how hot, cold, wet, or windy it might be!

Date:

Astronomy

Dec. 29, 2012 Rise Set
Actual Time 8:11 AM CST 5:08 PM CST
Civil Twilight 7:38 AM CST 5:41 PM CST
Nautical Twilight 7:01 AM CST 6:17 PM CST
Astronomical Twilight 6:26 AM CST 6:52 PM CST
Moon 6:46 PM CST (12/29) 8:42 AM CST (12/29)
Length of Visible Light 10h 03m
Length of Day
8h 57m
Full, 98% of the Moon is Illuminated
Dec 29
Full
Jan 4
Last Quarter
Jan 11
New
Jan 18
First Quarter
Jan 26
Full

Hourly Weather History & Observations

Time (CST) Temp. Windchill Dew Point Humidity Pressure Visibility Wind Dir Wind Speed Gust Speed Precip Events Conditions
12:52 AM 1.9 °F -7.6 °F -2.9 °F 80% 30.16 in - WSW 4.6 mph - N/A   Unknown
1:52 AM 7.0 °F -8.3 °F 1.0 °F 77% 30.15 in - West 11.5 mph - N/A   Unknown
2:52 AM 6.1 °F -8.7 °F 1.0 °F 80% 30.17 in - West 10.4 mph - N/A   Unknown
3:52 AM 3.0 °F - -2.9 °F 76% 30.18 in - Calm Calm - N/A   Unknown
4:52 AM 1.9 °F -11.8 °F -2.0 °F 83% 30.17 in - WSW 8.1 mph - N/A   Unknown
5:52 AM 3.0 °F -4.4 °F -2.0 °F 80% 30.18 in - WSW 3.5 mph - N/A   Unknown
6:52 AM 3.9 °F -6.9 °F -0.0 °F 84% 30.19 in - West 5.8 mph - N/A   Unknown
7:52 AM 6.1 °F - 1.0 °F 80% 30.19 in - Calm Calm - N/A   Unknown
8:52 AM 8.1 °F -8.4 °F 3.0 °F 80% 30.19 in - West 13.8 mph - N/A   Unknown
9:52 AM 10.0 °F -3.7 °F 5.0 °F 80% 30.20 in - West 10.4 mph - N/A   Unknown
10:52 AM 12.9 °F -2.2 °F 7.0 °F 77% 30.22 in - West 13.8 mph - N/A   Unknown
11:52 AM 17.1 °F 3.6 °F 10.0 °F 74% 30.21 in - West 12.7 mph - N/A   Unknown
12:52 PM 19.9 °F 10.1 °F 12.0 °F 71% 30.19 in - West 8.1 mph - N/A   Unknown
1:52 PM 24.1 °F 13.1 °F 15.1 °F 69% 30.17 in - West 11.5 mph - N/A   Unknown
2:52 PM 25.0 °F 14.8 °F 17.1 °F 72% 30.17 in - West 10.4 mph - N/A   Unknown
3:52 PM 25.0 °F 17.1 °F 16.0 °F 69% 30.17 in - West 6.9 mph - N/A   Unknown
4:52 PM 23.0 °F 15.8 °F 15.1 °F 72% 30.18 in - West 5.8 mph - N/A   Unknown
5:52 PM 23.0 °F 18.4 °F 16.0 °F 74% 30.18 in - WNW 3.5 mph - N/A   Unknown
6:52 PM 19.0 °F 10.0 °F 12.9 °F 77% 30.19 in - WSW 6.9 mph - N/A   Unknown
7:52 PM 17.1 °F 11.7 °F 10.9 °F 77% 30.19 in - SSW 3.5 mph - N/A   Unknown
8:52 PM 17.1 °F 6.6 °F 12.0 °F 81% 30.18 in - SW 8.1 mph - N/A   Unknown
9:52 PM 17.1 °F 7.6 °F 10.9 °F 77% 30.17 in - SW 6.9 mph - N/A   Unknown
10:52 PM 15.1 °F - 10.9 °F 84% 30.17 in - Calm Calm - N/A   Unknown
11:52 PM 17.1 °F 11.7 °F 12.0 °F 81% 30.15 in - South 3.5 mph - N/A   Unknown